Regional Weather Roundup
Issued by NWS

Home | Current Version | Previous Version | Text Only | Print | Product List | Glossary On
Versions: 1 2 3 4 5 6 7 8 9 10 11 12 13 14 15 16 17 18 19 20 21 22 23 24 25 26 27 28 29 30 31 32 33 34 35 36 37 38 39 40 41 42 43 44 45 46 47 48 49 50
000
ASUS44 KJAN 251710
RWRMS

MISSISSIPPI HOURLY WEATHER ROUNDUP
NATIONAL WEATHER SERVICE JACKSON MS
1200 PM CDT TUE JUL 25 2017

NOTE: "FAIR: INDICATES FEW OR NO CLOUDS BELOW 12,000 FEET WITH NO
SIGNIFICANT WEATHER AND/OR OBSTRUCTIONS TO VISIBILITY.

MSZ001>002-007>008-010>013-018>021-025>028-034>036-251800-
NORTHWEST MISSISSIPPI

CITY           SKY/WX    TMP DP  RH WIND       PRES   REMARKS
BATESVILLE     FAIR      86  76  70 CALM      30.11S HX  96
CLARKSDALE       N/A     91  79  66 CALM      30.09F HX 107
CLEVELAND      FAIR      89  79  70 CALM      30.10R HX 104
GREENWOOD      PTSUNNY   87  77  72 CALM      30.10S HX  99
GREENVILLE     MOSUNNY   89  75  63 W6        30.10R HX  99
OLIVE BRANCH   PTSUNNY  N/A N/A N/A S3        30.08F
OXFORD         PTSUNNY   84  73  70 S6        30.12F HX  91
TUNICA           N/A     90  77  66 S6        30.09S HX 102
WINONA         CLOUDY    86  77  75 S5        30.11S HX  97
$$

MSZ003>006-009-014>017-022>024-029>033-037>039-251800-
NORTHEAST MISSISSIPPI

CITY           SKY/WX    TMP DP  RH WIND       PRES   REMARKS
COLUMBUS AFB   SUNNY     84  79  84 S3        30.11S HX  96
CORINTH        FAIR      88  73  62 CALM      30.10R HX  96
STARKVILLE     PTSUNNY   82  73  74 CALM      30.13S
TUPELO         MOSUNNY   90  73  57 SE7       30.10F HX  98
$$

MSZ040-058-251800-
CENTRAL MISSISSIPPI

CITY           SKY/WX    TMP DP  RH WIND       PRES   REMARKS
JACKSON INTL   CLOUDY    79  77  94 S6        30.15R
JACKSON HAWKNS NOT AVBL
MADISON        PTSUNNY   79  73  83 CALM      30.14R
MERIDIAN KEY   CLOUDY    82  76  81 SW6       30.14R
MERIDIAN NAS   CLOUDY    86  73  65 E3        30.13S HX  93
RAYMOND        CLOUDY    79  77  94 MISG      30.14R FOG
$$

MSZ059>079-251800-
SOUTH MISSISSIPPI

CITY           SKY/WX    TMP DP  RH WIND       PRES   REMARKS
COLUMBIA       LGT RAIN  73  72  94 VRB5      30.20S
HATTIESBURG    LGT RAIN  77  74  90 W10       30.17R
LAUREL         CLOUDY    75  75 100 W6        30.16R
MCCOMB         RAIN      73  70  90 CALM      30.19S FOG
NATCHEZ        NOT AVBL
PINE BELT      LGT RAIN  74  73  97 W8        30.17S
$$

MSZ080>082-251800-
COASTAL MISSISSIPPI

CITY           SKY/WX    TMP DP  RH WIND       PRES   REMARKS
BAY ST LOUIS   TSTM      82  73  74 NW23G40   30.17R VSB 1
BILOXI         MOSUNNY   82  75  78 CALM      30.14S
PASCAGOULA     LGT RAIN  77  74  90 SE5       30.15S
GULFPORT       PTSUNNY   84  75  74 N10       30.13S HX  92
$$

LAZ007>009-015>016-023>026-251800-
NORTHEAST LOUISIANA

CITY           SKY/WX    TMP DP  RH WIND       PRES   REMARKS
BASTROP        FAIR      89  79  72 SW8       30.12S HX 104
TALLULAH/VBURG CLOUDY    84  77  79 VRB3      30.12S HX  94
VIDALIA        FAIR      83  79  87 SW9       30.14S HX  95
$$



USA.gov is the U.S. government's official web portal to all federal, state and local government web resources and services.